Terminal Aerodrome Forecast
Issued by NWS

Home | Current Version | Previous Version | Text Only | Print | Product List | Glossary On
Versions: 1 2 3 4 5 6 7 8 9 10 11 12 13
000
FTUS41 KCAR 051120
TAFPQI
TAF
KPQI 051120Z 0512/0612 31014G25KT P6SM FEW050
     FM052200 30009KT P6SM SCT050
     FM060600 29006KT P6SM SCT250
      AMD LTD TO CLD VIS AND WIND=

USA.gov is the U.S. government's official web portal to all federal, state and local government web resources and services.